FENGYUN 1C DEB

Satellite information

Favourite Embed

Satellite Type and Status

DEBRISIN ORBIT

Key statistics

Satellite FENGYUN 1C DEB at a glance.

Uptime

9715

Days in orbit

Revolutions

≈ 14.3

Per day

Orbit

SSO

Sun Synchronous Orbit

Inclination

99.4

Latest

Satellite identification and parameters

Extended collection of information and parameters for FENGYUN 1C DEB.

Object identification

Identified? True

Debris? True

Object name: FENGYUN 1C DEB

International designator: 1999-025BNV

Object number (NORAD): 31287

Object ID (CCSDS): 31287

Country: PEOPLES REPUBLIC OF CHINA (PRC)

Current information (Y/N): Y

RCS size: SMALL

Orbital parameters

Period: 100.841 minutes

Inclination: 99.4101 deg

SMA: 7176.581 km

Apoapsis: 818.335 km

Periapsis: 778.556 km

RAAN: 40.14 deg

Eccentricy: 0.00277142

Argument of periapsis: 69.5923 deg

Mean anomaly: 290.8228 deg

Mean motion: 14.27994114 rev/day

Mean motion (dot): 0.00005391 rev/day2

B* drag term: 0.0021830392 1/REarth

Two-line elements (TLE)

Creation date: Dec. 10, 2025, 7:58 p.m.

Reference frame: TEME

Reference center: EARTH

Epoch: Dec. 10, 2025, 9:05 a.m. UTC

TLE line 0: 0 FENGYUN 1C DEB

TLE line 1: 1 31287U 99025BNV 25344.37882863 .00005391 00000-0 21830-2 0 9993

TLE line 2: 2 31287 99.4101 40.1400 0027714 69.5923 290.8228 14.27994114966522

Live tracking on map

Real-time ground track for satellite FENGYUN 1C DEB.

In-orbit conjunctions

A list of the most updated potential collisions computed for object FENGYUN 1C DEB.

Target Orbit TCA Probability of collision Miss distance Type
PSLV R/B MEO 2025-05-14 08:21:57 0.0002812731 156.0 (m) ROCKET BODY
CZ-6A DEB LEO 2025-02-15 10:31:41 0.000195344 287.0 (m) DEBRIS
CZ-6A DEB LEO 2024-12-24 07:27:31 0.0001636375 410.0 (m) DEBRIS
NOAA 11 DEB SSO 2024-09-26 08:42:47 0.0004165546 553.0 (m) DEBRIS

Associated space launch

Chinese polar orbiting meteorological satellite

FENGYUN 1C DEB was lifted into orbit during the mission ‘Long March 4B | Feng Yun 1C’, on board a Long March 4B space rocket.

The launch took place on May 10, 1999, 1:33 a.m. from Launch Complex 7.

For more information about the launch, click the button.

Launch to space Long March 4B | Feng Yun 1C
Long March 4B | Feng Yun 1C

Agency: N/A

Status: Launch Successful

Launch date: May 10, 1999, 1:33 a.m. UTC

Rocket: Long March 4B

Launch pad: Launch Complex 7

Location: Taiyuan Satellite Launch Center, People's Republic of China

...

Latest news about this satellite

There are no fresh news available about this satellite. Check back as we update our databases every day.


Newsletter sign-up

Weekly statistics, charts and insights to help you stay on top of the space industry.